English version Home page |
Updated on May 13, 2024 |
|
軌道要素Epoch 2024 Mar. 31.0 TT = JDT 2460400.5 T 2023 July 12.89278 TT Rudenko q 0.9304876 (2000.0) P Q n 0.18070818 Peri. 181.89580 +0.80945857 -0.57125253 a 3.0984953 Node 214.11499 +0.54186096 +0.81583561 e 0.6996970 Incl. 14.01451 +0.22619355 +0.08990436 P 5.45 >From 817 observations 2007 Jan. 11-2024 Feb. 6, mean residual 0".8. Nongravitational parameters A1 = -0.00, A2 = +0.0143.
|
星図
|
光度変化m1 = 12.7 + 5 logΔ + 30.0 log r(t - 10) [ ,10] ( 〜2023年 7月22日) m1 = 12.5 + 5 logΔ + 23.0 log r(t - 10) [10, ] (2023年 7月22日〜 )
|
軌道要素はM.P.E.C. 2024-D33に掲載されたものです。
|